Time[GMT],salinity[psu](20m),sigma_t[kg/m^3](20m),conductivity[msiemens/cm](20m),temperature[C](20m)
2006-12-06 04:00,32.924,25.442,35.452,9.32
2006-12-06 05:00,32.918,25.443,35.420,9.29
2006-12-06 06:00,32.916,25.438,35.435,9.31
2006-12-06 07:00,32.897,25.434,35.355,9.24
2006-12-06 08:00,32.902,25.429,35.413,9.30
2006-12-06 09:00,32.896,25.427,35.389,9.28
2006-12-06 10:00,32.875,25.414,35.351,9.26
2006-12-06 11:00,32.882,25.419,35.358,9.26
2006-12-06 12:00,32.871,25.407,35.365,9.28
2006-12-06 13:00,32.867,25.407,35.343,9.26
2006-12-06 14:00,32.860,25.401,35.346,9.27
2006-12-06 15:00,32.864,25.400,35.367,9.29
2006-12-06 16:00,32.855,25.391,35.367,9.30
2006-12-06 17:00,32.861,25.396,35.373,9.30
2006-12-06 18:00,32.860,25.397,35.363,9.29
2006-12-06 19:00,32.864,25.403,35.349,9.27
2006-12-06 20:00,32.868,25.407,35.353,9.27
2006-12-06 21:00,32.881,25.419,35.357,9.26
2006-12-06 22:00,32.904,25.432,35.406,9.29
2006-12-06 23:00,32.922,25.442,35.441,9.31
2006-12-07 00:00,32.923,25.443,35.442,9.31
2006-12-07 01:00,32.922,25.441,35.450,9.32
2006-12-07 02:00,32.924,25.436,35.488,9.36
2006-12-07 03:00,32.919,25.432,35.483,9.36
2006-12-07 04:00,32.918,25.431,35.482,9.36
2006-12-07 05:00,32.914,25.431,35.460,9.34
2006-12-07 06:00,32.928,25.436,35.510,9.38
2006-12-07 07:00,32.925,25.437,35.489,9.36
2006-12-07 08:00,32.938,25.447,35.501,9.36
2006-12-07 09:00,32.944,25.453,35.498,9.35
2006-12-07 10:00,32.939,25.449,35.493,9.35
2006-12-07 11:00,32.947,25.456,35.501,9.35
2006-12-07 12:00,32.948,25.456,35.502,9.35
2006-12-07 13:00,32.943,25.451,35.506,9.36
2006-12-07 14:00,32.949,25.451,35.539,9.39
2006-12-07 15:00,32.943,25.445,35.542,9.40
2006-12-07 16:00,32.940,25.442,35.539,9.40
2006-12-07 17:00,32.935,25.437,35.543,9.41
2006-12-07 18:00,32.938,25.439,35.546,9.41
2006-12-07 19:00,32.941,25.441,35.549,9.41
2006-12-07 20:00,32.954,25.446,35.588,9.44
2006-12-07 21:00,32.961,25.457,35.568,9.41
2006-12-07 22:00,32.952,25.458,35.515,9.36
2006-12-07 23:00,32.943,25.458,35.471,9.32
2006-12-08 00:00,32.932,25.457,35.415,9.27
2006-12-08 01:00,32.950,25.460,35.495,9.34
2006-12-08 02:00,32.955,25.461,35.518,9.36
2006-12-08 03:00,32.964,25.456,35.589,9.43
2006-12-08 04:00,32.948,25.453,35.520,9.37
2006-12-08 05:00,32.955,25.453,35.563,9.41
2006-12-08 06:00,32.936,25.454,35.455,9.31
2006-12-08 07:00,32.947,25.462,35.465,9.31
2006-12-08 08:00,32.945,25.464,35.446,9.29
2006-12-08 09:00,32.938,25.461,35.421,9.27
2006-12-08 10:00,32.927,25.443,35.464,9.33
2006-12-08 11:00,32.926,25.441,35.472,9.34
2006-12-08 12:00,32.916,25.436,35.444,9.32
2006-12-08 13:00,32.921,25.439,35.458,9.33
2006-12-08 14:00,32.907,25.433,35.418,9.30
2006-12-08 15:00,32.878,25.416,35.354,9.26
2006-12-08 16:00,32.894,25.425,35.387,9.28
2006-12-08 17:00,32.877,25.424,35.309,9.21
2006-12-08 18:00,32.885,25.426,35.334,9.23
2006-12-08 19:00,32.889,25.430,35.338,9.23
2006-12-08 20:00,32.888,25.432,35.319,9.21
2006-12-08 21:00,32.891,25.439,35.295,9.18
2006-12-08 22:00,32.902,25.445,35.324,9.20
2006-12-08 23:00,32.904,25.445,35.335,9.21
2006-12-09 00:00,32.909,25.446,35.348,9.22
2006-12-09 01:00,32.914,25.452,35.344,9.21
2006-12-09 02:00,32.903,25.456,35.262,9.13
2006-12-09 03:00,32.902,25.455,35.261,9.13
2006-12-09 04:00,32.888,25.460,35.159,9.03
2006-12-09 05:00,32.892,25.462,35.172,9.04
2006-12-09 06:00,32.896,25.465,35.176,9.04
2006-12-09 07:00,32.903,25.469,35.191,9.05
2006-12-09 08:00,32.903,25.463,35.227,9.09
2006-12-09 09:00,32.911,25.467,35.243,9.10
2006-12-09 10:00,32.917,25.470,35.258,9.11
2006-12-09 11:00,32.917,25.467,35.276,9.13
2006-12-09 12:00,32.902,25.459,35.244,9.11
2006-12-09 13:00,32.903,25.464,35.218,9.08
2006-12-09 14:00,32.908,25.470,35.214,9.07
2006-12-09 15:00,32.915,25.475,35.221,9.07
2006-12-09 16:00,32.916,25.478,35.213,9.06
2006-12-09 17:00,32.911,25.474,35.208,9.06
2006-12-09 18:00,32.922,25.480,35.227,9.07
2006-12-09 19:00,32.912,25.475,35.209,9.06
2006-12-09 20:00,32.917,25.480,35.205,9.05
2006-12-09 21:00,32.914,25.478,35.202,9.05
2006-12-09 22:00,32.917,25.479,35.214,9.06
2006-12-09 23:00,32.928,25.484,35.242,9.08
2006-12-10 00:00,32.943,25.488,35.301,9.13
2006-12-10 01:00,32.948,25.495,35.288,9.11
2006-12-10 02:00,32.942,25.487,35.300,9.13
2006-12-10 03:00,32.939,25.486,35.288,9.12
2006-12-10 04:00,32.930,25.485,35.244,9.08
2006-12-10 05:00,32.927,25.489,35.205,9.04
2006-12-10 06:00,32.922,25.486,35.201,9.04
2006-12-10 07:00,32.928,25.493,35.189,9.02
2006-12-10 08:00,32.930,25.493,35.199,9.03
2006-12-10 09:00,32.929,25.488,35.225,9.06
2006-12-10 10:00,32.959,25.500,35.316,9.13
2006-12-10 11:00,32.942,25.494,35.255,9.08
2006-12-10 12:00,32.952,25.504,35.256,9.07
2006-12-10 13:00,32.952,25.499,35.283,9.10
2006-12-10 14:00,32.947,25.507,35.216,9.03
2006-12-10 15:00,32.940,25.502,35.200,9.02
2006-12-10 16:00,32.954,25.503,35.276,9.09
2006-12-10 17:00,32.934,25.498,35.194,9.02
2006-12-10 18:00,32.938,25.501,35.198,9.02
2006-12-10 19:00,32.942,25.504,35.202,9.02
2006-12-10 20:00,32.931,25.497,35.183,9.01
2006-12-10 21:00,32.926,25.492,35.187,9.02
2006-12-10 22:00,32.908,25.497,35.063,8.90
2006-12-10 23:00,32.915,25.500,35.078,8.91
2006-12-11 00:00,32.942,25.504,35.202,9.02
2006-12-11 01:00,32.940,25.499,35.218,9.04
2006-12-11 02:00,32.953,25.505,35.257,9.07
2006-12-11 03:00,32.959,25.508,35.272,9.08
2006-12-11 04:00,32.971,25.514,35.301,9.10
2006-12-11 05:00,32.968,25.517,35.272,9.07
2006-12-11 06:00,32.969,25.518,35.273,9.07
2006-12-11 07:00,32.962,25.517,35.239,9.04
2006-12-11 08:00,32.960,25.518,35.219,9.02
2006-12-11 09:00,32.969,25.522,35.246,9.04
2006-12-11 10:00,32.962,25.517,35.239,9.04
2006-12-11 11:00,32.954,25.514,35.214,9.02
2006-12-11 12:00,32.965,25.519,35.242,9.04
2006-12-11 13:00,32.969,25.524,35.237,9.03
2006-12-11 14:00,32.967,25.518,35.262,9.06
2006-12-11 15:00,32.966,25.517,35.261,9.06
2006-12-11 16:00,32.968,25.521,35.245,9.04
2006-12-11 17:00,32.968,25.517,35.272,9.07
2006-12-11 18:00,32.978,25.526,35.272,9.06
2006-12-11 19:00,32.972,25.526,35.240,9.03
2006-12-11 20:00,32.965,25.519,35.242,9.04
2006-12-11 21:00,32.963,25.520,35.222,9.02
2006-12-11 22:00,32.969,25.527,35.219,9.01
2006-12-11 23:00,32.961,25.519,35.220,9.02
2006-12-12 00:00,32.965,25.519,35.242,9.04
2006-12-12 01:00,32.967,25.525,35.217,9.01
2006-12-12 02:00,32.967,25.518,35.262,9.06
2006-12-12 03:00,32.960,25.513,35.246,9.05
2006-12-12 04:00,32.968,25.520,35.254,9.05
2006-12-12 05:00,32.964,25.520,35.232,9.03
2006-12-12 06:00,32.957,25.515,35.216,9.02
2006-12-12 07:00,32.965,25.514,35.269,9.07
2006-12-12 08:00,32.939,25.505,35.181,9.00
2006-12-12 09:00,32.929,25.503,35.136,8.96
2006-12-12 10:00,32.920,25.515,35.021,8.84
2006-12-12 11:00,32.957,25.514,35.225,9.03
2006-12-12 12:00,32.914,25.509,35.024,8.85
2006-12-12 13:00,32.915,25.508,35.034,8.86
2006-12-12 14:00,32.906,25.507,34.990,8.82
2006-12-12 15:00,32.907,25.504,35.008,8.84
2006-12-12 16:00,32.900,25.502,34.984,8.82
2006-12-12 17:00,32.904,25.502,35.005,8.84
2006-12-12 18:00,32.908,25.508,34.991,8.82
2006-12-12 19:00,32.895,25.501,34.961,8.80
2006-12-12 20:00,32.894,25.502,34.951,8.79
2006-12-12 21:00,32.894,25.510,34.907,8.74
2006-12-12 22:00,32.909,25.513,34.975,8.80
2006-12-12 23:00,32.900,25.505,34.966,8.80
2006-12-13 00:00,32.894,25.504,34.943,8.78
2006-12-13 01:00,32.904,25.509,34.970,8.80
2006-12-13 02:00,32.886,25.506,34.891,8.73
2006-12-13 03:00,32.867,25.504,34.793,8.64
2006-12-13 04:00,32.878,25.505,34.847,8.69
2006-12-13 05:00,32.879,25.504,34.857,8.70
2006-12-13 06:00,32.876,25.507,34.828,8.67
2006-12-13 07:00,32.880,25.511,34.823,8.66
2006-12-13 08:00,32.871,25.507,34.796,8.64
2006-12-13 09:00,32.876,25.511,34.801,8.64
2006-12-13 10:00,32.872,25.508,34.797,8.64
2006-12-13 11:00,32.877,25.515,34.784,8.62
2006-12-13 12:00,32.871,25.512,34.770,8.61
2006-12-13 13:00,32.869,25.510,34.768,8.61
2006-12-13 14:00,32.872,25.511,34.780,8.62
2006-12-13 15:00,32.882,25.517,34.798,8.63
2006-12-13 16:00,32.879,25.511,34.822,8.66
2006-12-13 17:00,32.878,25.510,34.821,8.66
2006-12-13 18:00,32.885,25.512,34.845,8.68
2006-12-13 19:00,32.897,25.515,34.892,8.72
2006-12-13 20:00,32.899,25.514,34.912,8.74
2006-12-13 21:00,32.900,25.513,34.922,8.75
2006-12-13 22:00,32.900,25.518,34.895,8.72
2006-12-13 23:00,32.894,25.514,34.880,8.71
2006-12-14 00:00,32.895,25.523,34.837,8.66
2006-12-14 01:00,32.889,25.514,34.858,8.69
2006-12-14 02:00,32.891,25.506,34.913,8.75
2006-12-14 03:00,32.902,25.510,34.950,8.78
2006-12-14 04:00,32.908,25.504,35.018,8.85
2006-12-14 05:00,32.910,25.504,35.029,8.86
2006-12-14 06:00,32.915,25.510,35.025,8.85
2006-12-14 07:00,32.913,25.506,35.032,8.86
2006-12-14 08:00,32.912,25.504,35.040,8.87
2006-12-14 09:00,32.913,25.505,35.041,8.87
2006-12-14 10:00,32.913,25.506,35.032,8.86
2006-12-14 11:00,32.909,25.503,35.028,8.86
2006-12-14 12:00,32.916,25.509,35.035,8.86
2006-12-14 13:00,32.924,25.513,35.051,8.87
2006-12-14 14:00,32.926,25.513,35.062,8.88
2006-12-14 15:00,32.927,25.513,35.072,8.89
2006-12-14 16:00,32.929,25.514,35.074,8.89
2006-12-14 17:00,32.928,25.513,35.073,8.89
2006-12-14 18:00,32.924,25.510,35.069,8.89
2006-12-14 19:00,32.925,25.508,35.088,8.91
2006-12-14 20:00,32.924,25.509,35.078,8.90
2006-12-14 21:00,32.923,25.512,35.050,8.87
2006-12-14 22:00,32.921,25.511,35.048,8.87
2006-12-14 23:00,32.924,25.513,35.051,8.87
2006-12-15 00:00,32.929,25.514,35.074,8.89
2006-12-15 01:00,32.934,25.521,35.061,8.87
2006-12-15 02:00,32.934,25.523,35.052,8.86
2006-12-15 03:00,32.915,25.511,35.016,8.84
2006-12-15 04:00,32.938,25.518,35.100,8.91
2006-12-15 05:00,32.953,25.526,35.132,8.93
2006-12-15 06:00,32.961,25.533,35.140,8.93
2006-12-15 07:00,32.924,25.524,34.989,8.80
2006-12-15 08:00,32.924,25.524,34.989,8.80
2006-12-15 09:00,32.934,25.524,35.043,8.85
2006-12-15 10:00,32.935,25.528,35.026,8.83
2006-12-15 11:00,32.946,25.530,35.072,8.87
2006-12-15 12:00,32.934,25.529,35.016,8.82
2006-12-15 13:00,32.934,25.524,35.043,8.85
2006-12-15 14:00,32.918,25.524,34.957,8.77
2006-12-15 15:00,32.891,25.521,34.824,8.65
2006-12-15 16:00,32.976,25.538,35.190,8.97
2006-12-15 17:00,32.956,25.536,35.100,8.89
2006-12-15 18:00,32.947,25.531,35.073,8.87
2006-12-15 19:00,32.940,25.528,35.058,8.86
2006-12-15 20:00,32.981,25.564,35.070,8.83
2006-12-15 21:00,32.935,25.529,35.017,8.82
2006-12-15 22:00,32.933,25.526,35.024,8.83
2006-12-15 23:00,32.933,25.525,35.033,8.84
2006-12-16 00:00,32.939,25.533,35.021,8.82
2006-12-16 01:00,32.931,25.528,35.005,8.81
2006-12-16 02:00,32.933,25.528,35.015,8.82
2006-12-16 03:00,32.912,25.521,34.942,8.76
2006-12-16 04:00,33.026,25.587,35.185,8.91
2006-12-16 05:00,32.923,25.537,34.908,8.71
2006-12-16 06:00,33.002,25.574,35.126,8.87
2006-12-16 07:00,32.965,25.555,35.037,8.81
2006-12-16 08:00,32.948,25.549,34.976,8.76
2006-12-16 09:00,32.950,25.549,34.987,8.77
2006-12-16 10:00,33.019,25.583,35.169,8.90
2006-12-16 11:00,32.976,25.565,35.039,8.80
2006-12-16 12:00,32.924,25.541,34.891,8.69
2006-12-16 13:00,32.953,25.551,34.990,8.77
2006-12-16 14:00,32.990,25.570,35.088,8.84
2006-12-16 15:00,32.973,25.561,35.045,8.81
2006-12-16 16:00,32.971,25.561,35.034,8.80
2006-12-16 17:00,32.963,25.561,34.991,8.76
2006-12-16 18:00,32.961,25.557,35.007,8.78
2006-12-16 19:00,33.000,25.573,35.124,8.87
2006-12-16 20:00,32.989,25.568,35.096,8.85
2006-12-16 21:00,32.943,25.548,34.954,8.74
2006-12-16 22:00,33.024,25.577,35.227,8.96
2006-12-16 23:00,32.974,25.562,35.046,8.81
2006-12-17 00:00,33.023,25.578,35.217,8.95
2006-12-17 01:00,33.002,25.577,35.108,8.85
2006-12-17 02:00,32.992,25.574,35.072,8.82
2006-12-17 03:00,33.008,25.581,35.123,8.86
2006-12-17 04:00,33.026,25.587,35.185,8.91
2006-12-17 05:00,33.008,25.582,35.114,8.85
2006-12-17 06:00,33.019,25.582,35.178,8.91
2006-12-17 07:00,33.011,25.583,35.126,8.86
2006-12-17 08:00,32.990,25.579,35.034,8.78
2006-12-17 09:00,32.991,25.574,35.071,8.82
2006-12-17 10:00,32.995,25.578,35.066,8.81
2006-12-17 11:00,32.996,25.579,35.067,8.81
2006-12-17 12:00,32.999,25.578,35.087,8.83
2006-12-17 13:00,33.017,25.587,35.131,8.86
2006-12-17 14:00,33.005,25.583,35.093,8.83
2006-12-17 15:00,33.018,25.582,35.168,8.90
2006-12-17 16:00,33.016,25.585,35.139,8.87
2006-12-17 17:00,32.994,25.578,35.065,8.81
2006-12-17 18:00,32.992,25.576,35.063,8.81
2006-12-17 19:00,33.002,25.582,35.081,8.82
2006-12-17 20:00,33.005,25.583,35.093,8.83
2006-12-17 21:00,33.008,25.581,35.123,8.86
2006-12-17 22:00,33.024,25.592,35.147,8.87
2006-12-17 23:00,33.029,25.591,35.179,8.90
2006-12-18 00:00,33.036,25.595,35.194,8.91
2006-12-18 01:00,32.998,25.584,35.051,8.79
2006-12-18 02:00,33.012,25.589,35.100,8.83
2006-12-18 03:00,33.008,25.584,35.105,8.84
2006-12-18 04:00,33.003,25.583,35.082,8.82
2006-12-18 05:00,32.984,25.576,35.020,8.77
2006-12-18 06:00,32.961,25.567,34.944,8.71
2006-12-18 07:00,32.972,25.574,34.964,8.72
2006-12-18 08:00,32.967,25.573,34.941,8.70
2006-12-18 09:00,32.987,25.573,35.049,8.80
2006-12-18 10:00,33.010,25.585,35.107,8.84
2006-12-18 11:00,33.012,25.589,35.100,8.83
2006-12-18 12:00,33.026,25.592,35.158,8.88
2006-12-18 13:00,33.032,25.597,35.164,8.88
2006-12-18 14:00,33.040,25.602,35.171,8.88
2006-12-18 15:00,33.035,25.601,35.158,8.87
2006-12-18 16:00,33.024,25.596,35.120,8.84
2006-12-18 17:00,33.014,25.590,35.102,8.83
2006-12-18 18:00,32.997,25.580,35.068,8.81
2006-12-18 19:00,32.995,25.580,35.057,8.80
2006-12-18 20:00,32.997,25.583,35.050,8.79
2006-12-18 21:00,32.998,25.579,35.078,8.82
2006-12-18 22:00,33.007,25.586,35.086,8.82
2006-12-18 23:00,33.015,25.589,35.112,8.84
2006-12-19 00:00,33.034,25.598,35.166,8.88
2006-12-19 01:00,33.046,25.603,35.204,8.91
2006-12-19 02:00,33.046,25.610,35.159,8.86
2006-12-19 03:00,33.049,25.613,35.162,8.86
2006-12-19 04:00,33.047,25.616,35.133,8.83
2006-12-19 05:00,33.039,25.611,35.117,8.82
2006-12-19 06:00,33.036,25.606,35.132,8.84
2006-12-19 07:00,33.039,25.611,35.117,8.82
2006-12-19 08:00,33.036,25.606,35.132,8.84
2006-12-19 09:00,33.034,25.612,35.085,8.79
2006-12-19 10:00,33.043,25.613,35.130,8.83
2006-12-19 11:00,33.050,25.618,35.136,8.83
2006-12-19 12:00,33.060,25.623,35.164,8.85
2006-12-19 13:00,33.067,25.624,35.197,8.88
2006-12-19 14:00,33.065,25.623,35.186,8.87
2006-12-19 15:00,33.067,25.625,35.188,8.87
2006-12-19 16:00,33.064,25.621,35.194,8.88
2006-12-19 17:00,33.062,25.618,35.201,8.89
2006-12-19 18:00,33.054,25.618,35.158,8.85
2006-12-19 19:00,33.037,25.616,35.079,8.78
2006-12-19 20:00,33.041,25.613,35.119,8.82
2006-12-19 21:00,33.034,25.610,35.094,8.80
2006-12-19 22:00,33.038,25.612,35.107,8.81
2006-12-19 23:00,33.038,25.609,35.125,8.83
2006-12-20 00:00,33.052,25.624,35.111,8.80
2006-12-20 01:00,33.067,25.627,35.179,8.86
2006-12-20 02:00,33.069,25.631,35.163,8.84
2006-12-20 03:00,33.074,25.637,35.159,8.83
2006-12-20 04:00,33.069,25.633,35.154,8.83
2006-12-20 05:00,33.063,25.629,35.149,8.83
2006-12-20 06:00,33.070,25.629,35.182,8.86
2006-12-20 07:00,33.031,25.619,35.029,8.73
2006-12-20 08:00,33.029,25.616,35.036,8.74
2006-12-20 09:00,33.021,25.616,34.993,8.70
2006-12-20 10:00,33.028,25.619,35.008,8.71
2006-12-20 11:00,33.034,25.623,35.023,8.72
2006-12-20 12:00,33.048,25.629,35.063,8.75
2006-12-20 13:00,33.068,25.637,35.127,8.80
2006-12-20 14:00,33.078,25.639,35.172,8.84
2006-12-20 15:00,33.072,25.637,35.148,8.82
2006-12-20 16:00,33.075,25.639,35.151,8.82
2006-12-20 17:00,33.071,25.636,35.147,8.82
2006-12-20 18:00,33.050,25.625,35.101,8.79
2006-12-20 19:00,33.028,25.616,35.026,8.73
2006-12-20 20:00,33.016,25.613,34.979,8.69
2006-12-20 21:00,33.000,25.606,34.928,8.65
2006-12-20 22:00,32.998,25.605,34.926,8.65
2006-12-20 23:00,33.014,25.610,34.986,8.70
2006-12-21 00:00,33.014,25.613,34.968,8.68
2006-12-21 01:00,33.039,25.627,35.028,8.72
2006-12-21 02:00,33.048,25.630,35.054,8.74
2006-12-21 03:00,33.051,25.631,35.066,8.75
2006-12-21 04:00,33.063,25.640,35.077,8.75
2006-12-21 05:00,33.056,25.634,35.080,8.76
2006-12-21 06:00,33.036,25.623,35.034,8.73
2006-12-21 07:00,33.034,25.617,35.059,8.76
2006-12-21 08:00,33.032,25.622,35.012,8.71
2006-12-21 09:00,33.020,25.616,34.983,8.69
2006-12-21 10:00,33.020,25.616,34.983,8.69
2006-12-21 11:00,33.021,25.616,34.993,8.70
2006-12-21 12:00,33.030,25.621,35.010,8.71
2006-12-21 13:00,33.028,25.618,35.017,8.72
2006-12-21 14:00,33.040,25.629,35.020,8.71
2006-12-21 15:00,33.041,25.625,35.047,8.74
2006-12-21 16:00,33.047,25.630,35.053,8.74
2006-12-21 17:00,33.043,25.626,35.049,8.74
2006-12-21 18:00,33.039,25.627,35.028,8.72
2006-12-21 19:00,33.030,25.618,35.028,8.73
2006-12-21 20:00,33.029,25.620,35.009,8.71
2006-12-21 21:00,33.027,25.620,34.998,8.70
2006-12-21 22:00,33.027,25.620,34.998,8.70
2006-12-21 23:00,33.021,25.620,34.966,8.67
2006-12-22 00:00,33.028,25.621,34.999,8.70
2006-12-22 01:00,33.031,25.626,34.984,8.68
2006-12-22 02:00,32.995,25.620,34.826,8.54
2006-12-22 03:00,33.021,25.632,34.895,8.59
2006-12-22 04:00,33.018,25.631,34.883,8.58
2006-12-22 05:00,33.015,25.630,34.871,8.57
2006-12-22 06:00,33.005,25.621,34.871,8.58
2006-12-22 07:00,33.000,25.628,34.804,8.51
2006-12-22 08:00,33.009,25.633,34.821,8.52
2006-12-22 09:00,33.012,25.633,34.842,8.54
2006-12-22 10:00,33.024,25.635,34.898,8.59
2006-12-22 11:00,33.027,25.635,34.909,8.60
2006-12-22 12:00,33.028,25.641,34.884,8.57
2006-12-22 13:00,33.035,25.643,34.908,8.59
2006-12-22 14:00,33.045,25.645,34.953,8.63
2006-12-22 15:00,33.051,25.647,34.977,8.65
2006-12-22 16:00,33.054,25.648,34.989,8.66
2006-12-22 17:00,33.062,25.651,35.014,8.68
2006-12-22 18:00,33.064,25.652,35.016,8.68
2006-12-22 19:00,33.061,25.647,35.031,8.70
2006-12-22 20:00,33.064,25.651,35.025,8.69
2006-12-22 21:00,33.068,25.650,35.046,8.71
2006-12-22 22:00,33.080,25.657,35.076,8.73
2006-12-22 23:00,33.072,25.651,35.068,8.73
2006-12-23 00:00,33.079,25.659,35.057,8.71
2006-12-23 01:00,33.085,25.658,35.098,8.75
2006-12-23 02:00,33.083,25.658,35.088,8.74
2006-12-23 03:00,33.090,25.663,35.094,8.74
2006-12-23 04:00,33.100,25.671,35.104,8.74
2006-12-23 05:00,33.088,25.665,35.074,8.72
2006-12-23 06:00,33.095,25.672,35.072,8.71
2006-12-23 07:00,33.100,25.670,35.113,8.75
2006-12-23 08:00,33.095,25.666,35.108,8.75
2006-12-23 09:00,33.092,25.662,35.114,8.76
2006-12-23 10:00,33.091,25.664,35.095,8.74
2006-12-23 11:00,33.090,25.662,35.103,8.75
2006-12-23 12:00,33.080,25.654,35.094,8.75
2006-12-23 13:00,33.084,25.661,35.080,8.73
2006-12-23 14:00,33.083,25.660,35.079,8.73
2006-12-23 15:00,33.089,25.661,35.102,8.75
2006-12-23 16:00,33.095,25.666,35.108,8.75
2006-12-23 17:00,33.089,25.664,35.084,8.73
2006-12-23 18:00,33.092,25.666,35.087,8.73
2006-12-23 19:00,33.087,25.661,35.091,8.74
2006-12-23 20:00,33.079,25.654,35.093,8.75
2006-12-23 21:00,33.064,25.641,35.078,8.75
2006-12-23 22:00,33.063,25.642,35.068,8.74
2006-12-23 23:00,33.063,25.644,35.060,8.73
2006-12-24 00:00,33.061,25.643,35.058,8.73
2006-12-24 01:00,33.050,25.634,35.047,8.73
2006-12-24 02:00,33.058,25.642,35.046,8.72
2006-12-24 03:00,33.041,25.637,34.976,8.66
2006-12-24 04:00,33.063,25.644,35.060,8.73
2006-12-24 05:00,33.061,25.643,35.058,8.73
2006-12-24 06:00,33.065,25.649,35.044,8.71
2006-12-24 07:00,33.038,25.636,34.964,8.65
2006-12-24 08:00,33.023,25.629,34.923,8.62
2006-12-24 09:00,33.034,25.641,34.916,8.60
2006-12-24 10:00,33.030,25.638,34.912,8.60
2006-12-24 11:00,33.006,25.621,34.881,8.59
2006-12-24 12:00,33.003,25.617,34.887,8.60
2006-12-24 13:00,33.006,25.629,34.827,8.53
2006-12-24 14:00,33.006,25.625,34.854,8.56
2006-12-24 15:00,33.026,25.630,34.935,8.63
2006-12-24 16:00,33.033,25.637,34.933,8.62
2006-12-24 17:00,33.040,25.639,34.957,8.64
2006-12-24 18:00,33.040,25.639,34.957,8.64
2006-12-24 19:00,33.038,25.647,34.902,8.58
2006-12-24 20:00,33.008,25.630,34.838,8.54
2006-12-24 21:00,32.957,25.615,34.639,8.37
2006-12-24 22:00,32.947,25.611,34.612,8.35
2006-12-24 23:00,32.948,25.613,34.604,8.34
2006-12-25 00:00,32.942,25.604,34.625,8.37
2006-12-25 01:00,32.951,25.613,34.615,8.35
2006-12-25 02:00,32.972,25.616,34.715,8.44
2006-12-25 03:00,32.974,25.622,34.690,8.41
2006-12-25 04:00,32.962,25.621,34.635,8.36
2006-12-25 05:00,32.973,25.626,34.663,8.38
2006-12-25 06:00,32.986,25.635,34.684,8.39
2006-12-25 07:00,32.993,25.637,34.708,8.41
2006-12-25 08:00,32.980,25.631,34.669,8.38
2006-12-25 09:00,32.980,25.636,34.643,8.35
2006-12-25 10:00,32.961,25.624,34.607,8.33
2006-12-25 11:00,32.963,25.626,34.609,8.33
2006-12-25 12:00,32.982,25.630,34.689,8.40
2006-12-25 13:00,32.959,25.626,34.588,8.31
2006-12-25 14:00,32.989,25.635,34.705,8.41
2006-12-25 15:00,32.974,25.630,34.646,8.36
2006-12-25 16:00,32.964,25.631,34.583,8.30
2006-12-25 17:00,32.957,25.627,34.568,8.29
2006-12-25 18:00,32.953,25.633,34.511,8.23
2006-12-25 19:00,32.946,25.626,34.513,8.24
2006-12-25 20:00,33.010,25.649,34.733,8.42
2006-12-25 21:00,32.962,25.633,34.564,8.28
2006-12-25 22:00,32.979,25.637,34.633,8.34
2006-12-25 23:00,32.953,25.624,34.564,8.29
2006-12-26 00:00,32.965,25.630,34.593,8.31
2006-12-26 01:00,32.960,25.635,34.535,8.25
2006-12-26 02:00,32.957,25.629,34.559,8.28
2006-12-26 03:00,32.943,25.631,34.466,8.19
2006-12-26 04:00,32.908,25.610,34.398,8.15
2006-12-26 05:00,32.964,25.633,34.575,8.29
2006-12-26 06:00,32.988,25.641,34.659,8.36
2006-12-26 07:00,33.003,25.644,34.727,8.42
2006-12-26 08:00,33.016,25.651,34.757,8.44
2006-12-26 09:00,33.013,25.649,34.754,8.44
2006-12-26 10:00,33.018,25.648,34.785,8.47
2006-12-26 11:00,33.037,25.661,34.812,8.48
2006-12-26 12:00,33.030,25.653,34.823,8.50
2006-12-26 13:00,33.037,25.658,34.830,8.50
2006-12-26 14:00,33.048,25.661,34.876,8.54
2006-12-26 15:00,33.052,25.658,34.915,8.58
2006-12-26 16:00,33.063,25.664,34.944,8.60
2006-12-26 17:00,33.070,25.669,34.950,8.60
2006-12-26 18:00,33.063,25.662,34.953,8.61
2006-12-26 19:00,33.076,25.671,34.974,8.62
2006-12-26 20:00,33.062,25.662,34.952,8.61
2006-12-26 21:00,33.062,25.663,34.943,8.60
2006-12-26 22:00,33.054,25.656,34.935,8.60
2006-12-26 23:00,33.053,25.657,34.925,8.59
2006-12-27 00:00,33.052,25.658,34.915,8.58
2006-12-27 01:00,33.045,25.654,34.900,8.57
2006-12-27 02:00,33.038,25.650,34.884,8.56
2006-12-27 03:00,33.038,25.651,34.875,8.55
2006-12-27 04:00,33.036,25.650,34.874,8.55
2006-12-27 05:00,33.040,25.653,34.877,8.55
2006-12-27 06:00,33.039,25.656,34.859,8.53
2006-12-27 07:00,33.036,25.648,34.882,8.56
2006-12-27 08:00,33.033,25.651,34.853,8.53
2006-12-27 09:00,33.042,25.652,34.897,8.57
2006-12-27 10:00,33.016,25.641,34.819,8.51
2006-12-27 11:00,33.002,25.642,34.735,8.43
2006-12-27 12:00,32.997,25.634,34.757,8.46
2006-12-27 13:00,33.008,25.640,34.776,8.47
2006-12-27 14:00,33.017,25.646,34.793,8.48
2006-12-27 15:00,33.017,25.646,34.793,8.48
2006-12-27 16:00,33.014,25.647,34.773,8.46
2006-12-27 17:00,33.015,25.644,34.791,8.48
2006-12-27 18:00,33.012,25.645,34.771,8.46
2006-12-27 19:00,33.005,25.642,34.746,8.44
2006-12-27 20:00,33.005,25.647,34.720,8.41
2006-12-27 21:00,32.997,25.642,34.703,8.40
2006-12-27 22:00,33.008,25.646,34.740,8.43
2006-12-27 23:00,33.014,25.647,34.773,8.46
2006-12-28 00:00,33.028,25.656,34.795,8.47
2006-12-28 01:00,33.032,25.656,34.816,8.49
2006-12-28 02:00,33.030,25.656,34.806,8.48
2006-12-28 03:00,33.030,25.656,34.806,8.48
2006-12-28 04:00,33.029,25.658,34.787,8.46
2006-12-28 05:00,33.030,25.656,34.806,8.48
2006-12-28 06:00,33.033,25.663,34.782,8.45
2006-12-28 07:00,33.033,25.662,34.791,8.46
2006-12-28 08:00,33.033,25.662,34.791,8.46
2006-12-28 09:00,33.032,25.666,34.754,8.42
2006-12-28 10:00,33.035,25.668,34.766,8.43
2006-12-28 11:00,33.030,25.662,34.770,8.44
2006-12-28 12:00,33.033,25.666,34.764,8.43
2006-12-28 13:00,33.036,25.673,34.740,8.40
2006-12-28 14:00,33.019,25.667,34.680,8.35
2006-12-28 15:00,32.994,25.650,34.638,8.33
2006-12-28 16:00,32.997,25.655,34.623,8.31
2006-12-28 17:00,33.000,25.655,34.644,8.33
2006-12-28 18:00,32.998,25.655,34.633,8.32